Weather reports worldwide

Advertisment
San Sebastian/Fuenterrabia, Spain (8029): temperature & dewpoint: 10.09.2019 05:00:00 - 16.09.2019 05:00:00 (CEST)San Sebastian/Fuenterrabia, Spain (8029): wind speed: 10.09.2019 05:00:00 - 16.09.2019 05:00:00 (CEST)San Sebastian/Fuenterrabia, Spain (8029): wind direction: 10.09.2019 05:00:00 - 16.09.2019 05:00:00 (CEST)San Sebastian/Fuenterrabia, Spain (8029): reduced air pressure: 10.09.2019 05:00:00 - 16.09.2019 05:00:00 (CEST)San Sebastian/Fuenterrabia, Spain (8029): visibility: 10.09.2019 05:00:00 - 16.09.2019 05:00:00 (CEST)
Date & Time tt [°C] td [°C] ff [km/h] ff [kn] dd ppp [hPa] vv [km]
16.09.2019 05:00:00 - - - - - - -
16.09.2019 04:00:00 20,0 19,0 5 3 S - 10
16.09.2019 03:00:00 20,0 19,0 8 4 S - 10
16.09.2019 02:00:00 20,0 19,0 0 0 N - 8
16.09.2019 01:00:00 21,0 18,0 5 3 - - 9
16.09.2019 00:00:00 21,0 18,0 9 5 S - 10
15.09.2019 23:00:00 21,0 18,0 9 5 SW - 10
15.09.2019 22:00:00 20,0 18,0 5 3 SSW - 10
15.09.2019 21:00:00 22,0 18,0 2 1 - - 10
15.09.2019 20:00:00 22,2 18,8 4 2 SSE 1020,3 30
15.09.2019 19:00:00 22,0 19,0 11 6 S - 10
15.09.2019 18:00:00 25,0 18,0 13 7 W - 10
15.09.2019 17:00:00 26,6 14,4 9 5 W 1021,1 10
15.09.2019 16:00:00 26,0 18,0 8 4 ENE - 10
15.09.2019 15:00:00 25,0 18,0 8 4 N - 10
15.09.2019 14:00:00 23,8 18,0 16 9 NE 1021,6 25
15.09.2019 13:00:00 25,0 19,0 9 5 NE - 10
15.09.2019 12:00:00 23,0 19,0 5 3 E - 10
15.09.2019 11:00:00 22,0 17,2 4 2 - 1022,3 10
15.09.2019 10:00:00 21,0 17,0 0 0 N - 10
15.09.2019 09:00:00 19,0 17,0 5 3 SW - 10
15.09.2019 08:00:00 17,6 16,5 0 0 N 1022,2 10
15.09.2019 07:00:00 18,0 17,0 8 4 SSW - 10
15.09.2019 06:00:00 17,0 16,0 5 3 SSW - 10
15.09.2019 05:00:00 18,0 17,0 2 1 - - 10
15.09.2019 04:00:00 18,0 17,0 2 1 - - 10
15.09.2019 03:00:00 18,0 17,0 5 3 SSW - 10
15.09.2019 02:00:00 19,0 18,0 4 2 - - 10
15.09.2019 01:00:00 19,0 17,0 5 3 SSW - 10
15.09.2019 00:00:00 20,0 18,0 4 2 - - 10
14.09.2019 23:00:00 20,0 18,0 4 2 SSW - 10
14.09.2019 22:00:00 21,0 17,0 2 1 - - 10
14.09.2019 21:00:00 22,0 17,0 2 1 SW - 10
14.09.2019 20:00:00 23,6 17,1 2 1 - 1023,1 10
14.09.2019 19:00:00 24,0 18,0 5 3 N - 10
14.09.2019 18:00:00 24,0 18,0 8 4 N - 10
14.09.2019 17:00:00 24,6 18,5 8 4 NNE 1023,2 10
14.09.2019 16:00:00 24,0 20,0 8 4 NNE - 10
14.09.2019 15:00:00 24,0 19,0 8 4 N - 10
14.09.2019 14:00:00 24,4 18,1 11 6 N 1024,8 30
14.09.2019 13:00:00 24,0 18,0 9 5 NNE - 10
14.09.2019 12:00:00 24,0 18,0 5 3 NE - 10
14.09.2019 11:00:00 23,0 18,0 4 2 - - 10
14.09.2019 10:00:00 21,0 17,0 0 0 N - 10
14.09.2019 09:00:00 20,0 18,0 2 1 - - 10
14.09.2019 08:00:00 18,3 17,1 4 2 SSW 1025,4 10
14.09.2019 07:00:00 19,0 18,0 5 3 SSE - 10
14.09.2019 06:00:00 19,0 18,0 5 3 SSE - 10
14.09.2019 05:00:00 19,0 18,0 4 2 - - 10
14.09.2019 04:00:00 19,0 18,0 4 2 - - 10
14.09.2019 03:00:00 19,0 18,0 8 4 S - 10
14.09.2019 02:00:00 19,0 18,0 9 5 SSE - 10
14.09.2019 01:00:00 18,0 17,0 5 3 S - 10
14.09.2019 00:00:00 18,0 17,0 8 4 S - 10
13.09.2019 23:00:00 19,0 18,0 4 2 S - 10
13.09.2019 22:00:00 20,0 18,0 4 2 - - 10
13.09.2019 21:00:00 20,0 18,0 2 1 - - 10
13.09.2019 20:00:00 21,7 17,3 4 2 - 1027,0 10
13.09.2019 19:00:00 22,0 18,0 5 3 WNW - 10
13.09.2019 18:00:00 23,0 17,0 8 4 NNE - 10
13.09.2019 17:00:00 23,6 16,9 9 5 N 1027,5 10
13.09.2019 16:00:00 23,0 17,0 8 4 NNE - 10
13.09.2019 15:00:00 23,0 18,0 9 5 NE - 10
13.09.2019 14:00:00 23,8 17,1 11 6 N 1028,2 10
13.09.2019 13:00:00 22,0 18,0 8 4 NNW - 10
13.09.2019 12:00:00 22,0 17,0 2 1 - - 10
13.09.2019 11:00:00 20,1 15,7 5 3 SSW 1029,4 30
13.09.2019 10:00:00 17,0 15,0 5 3 SSE - 10
13.09.2019 09:00:00 15,0 14,0 8 4 S - 10
13.09.2019 08:00:00 14,5 13,0 9 5 S 1029,9 10
13.09.2019 07:00:00 15,0 13,0 2 1 - - 10
13.09.2019 06:00:00 15,0 14,0 8 4 SSE - 10
13.09.2019 05:00:00 15,0 14,0 5 3 S - 10
13.09.2019 04:00:00 15,0 14,0 5 3 S - 10
13.09.2019 03:00:00 16,0 14,0 5 3 S - 10
13.09.2019 02:00:00 16,0 14,0 5 3 S - 10
13.09.2019 01:00:00 16,0 14,0 8 4 S - 10
13.09.2019 00:00:00 16,0 14,0 8 4 S - 10
12.09.2019 23:00:00 16,0 14,0 5 3 SSW - 10
12.09.2019 22:00:00 17,0 15,0 8 4 S - 10
12.09.2019 21:00:00 19,0 16,0 4 2 - - 10
12.09.2019 20:00:00 20,4 15,6 2 1 - 1030,4 10
12.09.2019 19:00:00 21,0 16,0 9 5 NNE - 10
12.09.2019 18:00:00 21,0 14,0 9 5 NNE - 10
12.09.2019 17:00:00 20,6 15,2 9 5 NE 1030,3 10
12.09.2019 16:00:00 21,0 16,0 11 6 NNE - 10
12.09.2019 15:00:00 20,0 15,0 11 6 NNE - 10
12.09.2019 14:00:00 20,2 13,9 11 6 NNE 1031,9 25
12.09.2019 13:00:00 20,0 13,0 11 6 NNE - 10
12.09.2019 12:00:00 20,0 13,0 11 6 NNE - 10
12.09.2019 11:00:00 18,4 13,9 2 1 - 1032,2 10
12.09.2019 10:00:00 17,0 14,0 4 2 - - 10
12.09.2019 09:00:00 15,0 13,0 5 3 S - 10
12.09.2019 08:00:00 13,8 12,7 4 2 - 1031,3 10
12.09.2019 07:00:00 14,0 13,0 5 3 S - 10
12.09.2019 06:00:00 14,0 13,0 4 2 S - 10
12.09.2019 05:00:00 14,0 13,0 5 3 S - 10
12.09.2019 04:00:00 15,0 14,0 4 2 S - 10
12.09.2019 03:00:00 15,0 14,0 5 3 SSE - 10
12.09.2019 02:00:00 16,0 15,0 5 3 S - 10
12.09.2019 01:00:00 16,0 15,0 4 2 S - 10
12.09.2019 00:00:00 17,0 15,0 4 2 SSW - 10
11.09.2019 23:00:00 19,0 15,0 5 3 NNE - 10
11.09.2019 22:00:00 19,0 16,0 8 4 NNE - 10
11.09.2019 21:00:00 20,0 16,0 8 4 N - 10
11.09.2019 20:00:00 20,2 14,3 11 6 N 1028,7 30
11.09.2019 19:00:00 21,0 16,0 8 4 N - 10
11.09.2019 18:00:00 21,0 14,0 11 6 N - 10
11.09.2019 17:00:00 22,6 14,7 11 6 N 1028,3 10
11.09.2019 16:00:00 21,0 14,0 5 3 N - 10
11.09.2019 15:00:00 22,0 14,0 9 5 NNE - 10
11.09.2019 14:00:00 20,8 11,7 8 4 E 1028,2 30
11.09.2019 13:00:00 21,0 14,0 8 4 NNE - 10
11.09.2019 12:00:00 20,0 14,0 9 5 NNE - 10
11.09.2019 11:00:00 20,0 13,0 9 5 NNE 1027,4 20
11.09.2019 10:00:00 19,0 14,0 4 2 - - 10
11.09.2019 09:00:00 18,0 15,0 8 4 S - 10
11.09.2019 08:00:00 18,0 14,1 5 3 E 1025,2 20
11.09.2019 07:00:00 19,0 14,0 15 8 NE - 10
11.09.2019 06:00:00 19,0 15,0 13 7 NNE - 10
11.09.2019 05:00:00 20,0 15,0 15 8 N - 10
11.09.2019 04:00:00 20,0 15,0 15 8 N - 10
11.09.2019 03:00:00 20,0 15,0 15 8 N - 10
11.09.2019 02:00:00 20,0 15,0 15 8 N - 10
11.09.2019 01:00:00 20,0 15,0 13 7 N - 10
11.09.2019 00:00:00 19,0 14,0 16 9 N - 10
10.09.2019 23:00:00 19,0 15,0 15 8 N - 10
10.09.2019 22:00:00 19,0 14,0 15 8 N - 10
10.09.2019 21:00:00 19,0 13,0 13 7 N - 10
10.09.2019 20:00:00 18,3 12,3 15 8 N 1019,8 10
10.09.2019 19:00:00 19,0 14,0 18 10 N - 10
10.09.2019 18:00:00 19,0 13,0 18 10 N - 10
10.09.2019 17:00:00 20,3 12,8 15 8 N 1017,0 30
10.09.2019 16:00:00 19,0 12,0 9 5 NW - 10
10.09.2019 15:00:00 19,0 13,0 8 4 NW - 10
10.09.2019 14:00:00 19,6 13,1 11 6 NNW 1015,6 30
10.09.2019 13:00:00 18,0 13,0 9 5 NNW - 10
10.09.2019 12:00:00 17,0 12,0 13 7 NW - 10
10.09.2019 11:00:00 14,3 12,5 11 6 SW 1014,8 9
10.09.2019 10:00:00 14,0 12,0 15 8 SW - 10
10.09.2019 09:00:00 13,0 12,0 16 9 SW - 10
10.09.2019 08:00:00 12,8 11,0 21 11 WSW 1014,8 14
10.09.2019 07:00:00 14,0 12,0 13 7 SW - 10
10.09.2019 06:00:00 14,0 12,0 11 6 SSW - 7
10.09.2019 05:00:00 15,0 11,0 8 4 SW - 10

tt = temperature
td = dewpoint
ff = wind speed
dd = wind direction
ppp = reduced air pressure
vv = visibility

Next stations